Location: Newark
(50.0953°N, 2.1719°E)
Time: 19:56:42
(UTC+00:00)

N. Korean satellite - Pass Details

Date: 21 January 2020
Orbit: 456 x 505 km, 97.2° (Epoch: 19 February)

Event Time Altitude Azimuth Distance (km) Brightness Sun altitude
Rises 05:49:58 0° 12° (NNE) 2,518 10.2 -17.2°
Reaches altitude 10° 05:52:00 10° 13° (NNE) 1,643 9.3 -16.9°
Maximum altitude 05:55:33 90° 100° (E) 483 6.4 -16.3°
Drops below altitude 10° 05:59:06 10° 194° (SSW) 1,657 9.2 -15.7°
Sets 06:01:10 0° 194° (SSW) 2,540 10.2 -15.4°
